Location: Middelsbur
(53.6609°N, 7.5020°E)
Time: 00:07:10
(UTC+00:00)

NOSS 0 Rocket - Pass Details

Date: 06 July 2020
Orbit: 935 x 955 km, 70.0° (Epoch: 03 August)

Event Time Altitude Azimuth Distance (km) Brightness Sun altitude
Exits shadow 22:22:20 - 213° (SSW) 3,481 6.5 -12.2°
Reaches altitude 10° 22:24:34 10° 213° (SSW) 2,644 5.9 -12.3°
Maximum altitude 22:30:43 88° 303° (WNW) 948 4.0 -12.5°
Drops below altitude 10° 22:36:56 10° 34° (NE) 2,671 6.9 -12.8°
Sets 22:39:29 0° 35° (NE) 3,623 7.6 -12.8°
